Tracking 27380 objects as of 5-Jun-2023
HD Live streaming from Space Station
objects crossing your sky now

DELTA 1 DEB

Track DELTA 1 DEB now!
10-day predictions


NORAD ID: 7052
Int'l Code: 1973-086AU
Perigee: 1,505.9 km
Apogee: 1,544.1 km
Inclination: 102.3 °
Period: 116.4 minutes
Semi major axis: 7895 km
RCS: 0.0861 m2 (small)
Launch date: November 6, 1973
Source: United States (US)
Launch site: AIR FORCE WESTERN TEST RANGE (AFWTR)

Note: This is SATELLITE DEBRIS
Your satellite tracking list
Your tracking list is empty




NASA's NSSDC Master Catalog

Two Line Element Set (TLE):
1  7052U 73086AU  23156.44254793 -.00000017  00000-0  22697-3 0  9991
2  7052 102.3284 139.1620 0024168 117.7155  37.4560 12.37353386238218
Source of the keplerian elements: AFSPC